Find Starlink 31763

NORAD ID: 59623 Int'l Des: 2024-080 Owner: SPXS Country: US Constellation: starlink operational
LEOCIRCULAR

Current View

Loading 3D Globe...

About Starlink 31763

Starlink 31763 (NORAD 59623) is a starlink constellation satellite (v2 mini) launched Apr 28, 2024 by SPXS of US. It operates in LEO, CIRCULAR orbit with a mass of 730.00 kg.

Upcoming Passes

Passes for default location (London). Set your location on the main map for personalized predictions.

Altitude History

Loading altitude history...

Two-Line Element Set

1 59623U 24080Y 26228.46449828 -.00000498 00000-0 -85787-5 0 9997
2 59623 43.0003 215.9668 0001129 275.9651 84.1072 15.27575455128966
Epoch: Aug 16, 2026 • Age: 9 hours

Current Status

Altitude 483.1 km
Apogee / Perigee N/A
Velocity 7.63 km/s
Sub-Earth Point -1.37°S, 133.38°E
Launch Date Apr 28, 2024
Age 2.2 years
Type internet

Technical Details

Classification Payload
Mass 730.00 kg
Dry Mass 700.00 kg
Total Mass 730.00 kg
Length 0.30 m
Diameter 4.10 m
Span 29.00 m
Shape Box + pan
Manufacturer SPXS
Bus Type Starlink V2M
Phase Status In Orbit
Owner/State SPXS/US

Most Searched